This demonstration page uses our WeatherBlox Daily Observations layout. Learn more.

36.19886, -115.1175

Hourly Observations for May 20, 2018

Temp ( °F °C ) Dew Point ( °F °C ) Humidity (%) Winds ( mph kmh ) Pressure ( in mb ) Visibility ( mi km ) Precip ( " mm )
12:53 am 00:53 Clear 74 23.3 36 2.2 25 25 NNW 6 9 29.77 1008 10 16.09344 0 0
1:53 am 01:53 Clear 72 22.2 38 3.3 29 29 NW 6 9 29.77 1008 10 16.09344 0 0
2:53 am 02:53 Clear 72 22.2 38 3.3 29 29 Calm 29.74 1007 10 16.09344 0 0
3:53 am 03:53 Clear 71 21.7 38 3.3 30 30 WNW 3 6 29.77 1008 10 16.09344 0 0
4:53 am 04:53 Clear 68 20 39 3.9 35 35 NW 6 9 29.77 1008 10 16.09344 0 0
5:53 am 05:53 Sunny 67 19.4 39 3.9 36 36 NNW 5 7 29.8 1009 10 16.09344 0 0
6:53 am 06:53 Sunny 71 21.7 38 3.3 30 30 N 5 7 29.8 1009 10 16.09344 0 0
7:53 am 07:53 Sunny 74 23.3 38 3.3 27 27 Calm 29.83 1010 10 16.09344 0 0
8:53 am 08:53 Sunny 77 25 38 3.3 24 24 SE 3 6 29.83 1010 10 16.09344 0 0
9:53 am 09:53 Sunny 79 26.1 39 3.9 24 24 SSE 8 13 29.83 1010 10 16.09344 0 0
10:53 am 10:53 Sunny 82 27.8 39 3.9 22 22 ESE 3 6 29.8 1009 10 16.09344 0 0
11:53 am 11:53 Sunny 84 28.9 36 2.2 18 18 SSE 7 11 29.77 1008 10 16.09344 0 0
12:53 pm 12:53 Sunny 88 31.1 27 -2.8 11 11 SE 13 20 29.74 1007 10 16.09344 0 0
1:53 pm 13:53 Sunny 89 31.7 26 -3.3 10 10 E 8 13 29.71 1006 10 16.09344 0 0
2:53 pm 14:53 Sunny 91 32.8 29 -1.7 11 11 S 18 30 29.68 1005 10 16.09344 0 0
3:53 pm 15:53 Sunny 89 31.7 31 -0.6 12 12 SSE 9 15 29.65 1004 10 16.09344 0 0
4:53 pm 16:53 Sunny 90 32.2 32 0 13 13 SW 10 17 29.65 1004 10 16.09344 0 0
5:53 pm 17:53 Sunny 89 31.7 30 -1.1 12 12 SSW 13 20 29.65 1004 10 16.09344 0 0
6:53 pm 18:53 Sunny 89 31.7 29 -1.7 11 11 SSW 16 26 29.62 1003 10 16.09344 0 0
7:53 pm 19:53 Clear 87 30.6 29 -1.7 12 12 SSW 13 20 29.62 1003 10 16.09344 0 0
8:53 pm 20:53 Clear 85 29.4 30 -1.1 14 14 SSW 13 20 29.65 1004 10 16.09344 0 0
9:53 pm 21:53 Clear 84 28.9 33 0.6 16 16 S 13 20 29.65 1004 10 16.09344 0 0
10:53 pm 22:53 Clear 83 28.3 34 1.1 17 17 SSW 9 15 29.65 1004 10 16.09344 0 0
11:53 pm 23:53 Clear 80 26.7 35 1.7 20 20 S 8 13 29.65 1004 10 16.09344 0 0

Powered by AerisWeather